TIANHUI 6A

Satellite information

Favourite Embed

Satellite Type and Status

PAYLOADIN ORBIT

Key statistics

Satellite TIANHUI 6A at a glance.

Uptime

790

Days in orbit

Revolutions

≈ 14.0

Per day

Orbit

SSO

Sun Synchronous Orbit

Inclination

99.0

Latest

Satellite identification and parameters

Extended collection of information and parameters for TIANHUI 6A.

Object identification

Identified? True

Debris? False

Object name: TIANHUI 6A

International designator: 2023-030A

Object number (NORAD): 55836

Object ID (CCSDS): 55836

Country: PEOPLES REPUBLIC OF CHINA (PRC)

Current information (Y/N): Y

RCS size: LARGE

Orbital parameters

Period: 102.76 minutes

Inclination: 98.9997 deg

SMA: 7267.332 km

Apoapsis: 890.513 km

Periapsis: 887.882 km

RAAN: 135.4751 deg

Eccentricy: 0.000181

Argument of periapsis: 141.5843 deg

Mean anomaly: 218.5451 deg

Mean motion: 14.01329363 rev/day

Mean motion (dot): 0.00000012 rev/day2

B* drag term: 0.000037226 1/REarth

Two-line elements (TLE)

Creation date: May 6, 2025, 10:46 p.m.

Reference frame: TEME

Reference center: EARTH

Epoch: May 6, 2025, 9:29 p.m. UTC

TLE line 0: 0 TIANHUI 6A

TLE line 1: 1 55836U 23030A 25126.89548806 .00000012 00000-0 37226-4 0 9996

TLE line 2: 2 55836 98.9997 135.4751 0001810 141.5843 218.5451 14.01329363110507

Live tracking on map

Real-time ground track for satellite TIANHUI 6A.

In-orbit conjunctions

There are no conjunctions computed for TIANHUI 6A, at the moment. Check back to stay up to date, as we update our databases every day.

Go to all conjunctions

Associated space launch

Described as satellites for cartography purposes, details TBD.

TIANHUI 6A was lifted into orbit during the mission ‘Long March 4C | Tianhui-6 A/B’, on board a Long March 4C space rocket.

The launch took place on March 9, 2023, 10:41 p.m. from Launch Complex 9.

For more information about the launch, click the button.

Launch to space Long March 4C | Tianhui-6 A/B
Long March 4C | Tianhui-6 A/B

Agency: N/A

Status: Launch Successful

Launch date: March 9, 2023, 10:41 p.m. UTC

Rocket: Long March 4C

Launch pad: Launch Complex 9

Location: Taiyuan Satellite Launch Center, People's Republic of China

...

Latest news about this satellite

There are no fresh news available about this satellite. Check back as we update our databases every day.


Newsletter sign-up

Weekly statistics, charts and insights to help you stay on top of the space industry.